East Milton, MA

4:52 AM EDT on March 25, 2017 (GMT -0400)
East Milton

Weather History for KMQE - October, 2012

Change the Weather History Date:

Thursday, October 4, 2012

  Actual Average (KOWD) Record (KOWD)
Temperature  
Mean Temperature 59 °F -  
Max Temperature 61 °F 64 °F 86 °F (2007)
Min Temperature 57 °F 39 °F 30 °F (1998)
Degree Days  
Heating Degree Days 6    
Growing Degree Days 9 (Base 50)    
Moisture  
Dew Point 58 °F    
Average Humidity 96    
Maximum Humidity 97    
Minimum Humidity 93    
Precipitation  
Precipitation 0.06 in - - ()
Sea Level Pressure  
Sea Level Pressure 30.14 in    
Wind  
Wind Speed 6 mph (NNE)    
Max Wind Speed 10 mph    
Max Gust Speed -    
Averages and records for this station are not official NWS values.
T = Trace of Precipitation, MM = Missing Value Source: NWS Daily Summary

Daily Weather History Graph

Daily Weather History Graph

Search for Another Location

Airport or City:

Trip Planner

Search our weather history database for the weather conditions in past years. The results will help you decide how hot, cold, wet, or windy it might be!

Date:

Astronomy

Oct. 04, 2012 Rise Set
Actual Time 6:45 AM EDT 6:20 PM EDT
Civil Twilight 6:17 AM EDT 6:47 PM EDT
Nautical Twilight 5:44 AM EDT 7:20 PM EDT
Astronomical Twilight 5:12 AM EDT 7:52 PM EDT
Moon 8:48 PM EDT (10/4) 11:04 AM EDT (10/4)
Length of Visible Light 12h 30m
Length of Day
11h 34m
Waning Gibbous, 82% of the Moon is Illuminated
Oct 4
Waning Gibbous
Oct 8
Last Quarter
Oct 15
New
Oct 21
First Quarter
Oct 29
Full

Hourly Weather History & Observations

Time (EDT) Temp. Dew Point Humidity Pressure Visibility Wind Dir Wind Speed Gust Speed Precip Events Conditions
12:54 AM 59.0 °F 57.9 °F 96% 30.18 in - NE 6.9 mph - N/A   Unknown
1:54 AM 59.0 °F 57.9 °F 96% 30.19 in - North 6.9 mph - N/A   Unknown
2:54 AM 59.0 °F 57.9 °F 96% 30.17 in - NNE 8.1 mph - N/A   Unknown
3:54 AM 59.0 °F 57.0 °F 93% 30.17 in - NE 8.1 mph - N/A   Unknown
4:54 AM 59.0 °F 57.9 °F 96% 30.17 in - North 5.8 mph - N/A   Unknown
5:54 AM 57.9 °F 57.0 °F 97% 30.17 in - North 4.6 mph - N/A   Unknown
6:54 AM 57.9 °F 57.0 °F 97% 30.18 in - NNE 9.2 mph - N/A   Unknown
7:54 AM 57.9 °F 57.0 °F 97% 30.18 in - NNE 10.4 mph - N/A   Unknown
8:54 AM 57.9 °F 57.0 °F 97% 30.18 in - NE 9.2 mph - N/A   Unknown
9:54 AM 59.0 °F 57.9 °F 96% 30.19 in - North 6.9 mph - N/A   Unknown
10:54 AM 60.1 °F 59.0 °F 96% 30.17 in - NE 5.8 mph - N/A   Unknown
11:54 AM 61.0 °F 59.0 °F 93% 30.18 in - North 4.6 mph - 0.01 in   Unknown
12:54 PM 60.1 °F 59.0 °F 96% 30.15 in - NNE 4.6 mph - N/A   Unknown
1:54 PM 60.1 °F 59.0 °F 96% 30.13 in - NNW 4.6 mph - N/A   Unknown
2:54 PM 60.1 °F 59.0 °F 96% 30.11 in - Variable 4.6 mph - N/A   Unknown
3:54 PM 60.1 °F 59.0 °F 96% 30.09 in - East 6.9 mph - N/A   Unknown
4:54 PM 59.0 °F 57.9 °F 96% 30.09 in - East 5.8 mph - N/A   Unknown
5:54 PM 59.0 °F 57.9 °F 96% 30.12 in - North 4.6 mph - N/A   Unknown
6:54 PM 57.9 °F 57.0 °F 97% 30.09 in - ENE 3.5 mph - N/A   Unknown
7:54 PM 57.9 °F 57.0 °F 97% 30.08 in - Calm Calm - N/A   Unknown
8:54 PM 59.0 °F 57.0 °F 93% 30.09 in - SSW 3.5 mph - 0.02 in   Unknown
9:54 PM 57.9 °F 57.0 °F 97% 30.07 in - SE 5.8 mph - 0.01 in   Unknown
10:54 PM 59.0 °F 57.9 °F 96% 30.08 in - Calm Calm - 0.02 in   Unknown
11:54 PM 59.0 °F 57.9 °F 96% 30.07 in - SW 5.8 mph - N/A   Unknown